owner,sensor,date,latitude,longitude,air_temperature,qcFlag 
DISL,ioos:station:DISL:DISL:1,2009-01-01T06:30:00Z,30.2513,-88.0778,8.32,1111122 
DISL,ioos:station:DISL:DISL:1,2009-01-01T07:00:00Z,30.2513,-88.0778,8.08,1111122 
DISL,ioos:station:DISL:DISL:1,2009-01-01T07:30:00Z,30.2513,-88.0778,7.68,1111122 
DISL,ioos:station:DISL:DISL:1,2009-01-01T08:00:00Z,30.2513,-88.0778,7.5,1111122 
DISL,ioos:station:DISL:DISL:1,2009-01-01T08:30:00Z,30.2513,-88.0778,7.3,1111122 
DISL,ioos:station:DISL:DISL:1,2009-01-01T09:00:00Z,30.2513,-88.0778,7.42,1111122 
DISL,ioos:station:DISL:DISL:1,2009-01-01T09:30:00Z,30.2513,-88.0778,7.37,1111122 
DISL,ioos:station:DISL:DISL:1,2009-01-01T10:00:00Z,30.2513,-88.0778,7.05,1111122 
DISL,ioos:station:DISL:DISL:1,2009-01-01T10:30:00Z,30.2513,-88.0778,6.96,1111122 
DISL,ioos:station:DISL:DISL:1,2009-01-01T11:00:00Z,30.2513,-88.0778,7.17,1111122 
DISL,ioos:station:DISL:DISL:1,2009-01-01T11:30:00Z,30.2513,-88.0778,6.643,1111122 
DISL,ioos:station:DISL:DISL:1,2009-01-01T12:00:00Z,30.2513,-88.0778,6.864,1111122 
DISL,ioos:station:DISL:DISL:1,2009-01-01T12:30:00Z,30.2513,-88.0778,6.777,1111122 
DISL,ioos:station:DISL:DISL:1,2009-01-01T13:00:00Z,30.2513,-88.0778,6.95,1111122 
DISL,ioos:station:DISL:DISL:1,2009-01-01T13:30:00Z,30.2513,-88.0778,7.26,1111122 
DISL,ioos:station:DISL:DISL:1,2009-01-01T14:00:00Z,30.2513,-88.0778,7.37,1111122 
DISL,ioos:station:DISL:DISL:1,2009-01-01T14:30:00Z,30.2513,-88.0778,7.66,1111122 
DISL,ioos:station:DISL:DISL:1,2009-01-01T15:00:00Z,30.2513,-88.0778,8.13,1111122 
DISL,ioos:station:DISL:DISL:1,2009-01-01T15:30:00Z,30.2513,-88.0778,9.09,1111122 
DISL,ioos:station:DISL:DISL:1,2009-01-01T16:00:00Z,30.2513,-88.0778,10.0,1111122 
DISL,ioos:station:DISL:DISL:1,2009-01-01T16:30:00Z,30.2513,-88.0778,14.51,1111122 
DISL,ioos:station:DISL:DISL:1,2009-01-01T17:00:00Z,30.2513,-88.0778,14.84,1111122 
DISL,ioos:station:DISL:DISL:1,2009-01-01T17:30:00Z,30.2513,-88.0778,14.81,1111122 
DISL,ioos:station:DISL:DISL:1,2009-01-01T18:00:00Z,30.2513,-88.0778,15.24,1111122 
DISL,ioos:station:DISL:DISL:1,2009-01-01T18:30:00Z,30.2513,-88.0778,15.58,1111122 
DISL,ioos:station:DISL:DISL:1,2009-01-01T19:00:00Z,30.2513,-88.0778,15.36,1111122 
DISL,ioos:station:DISL:DISL:1,2009-01-01T19:30:00Z,30.2513,-88.0778,15.38,1111122 
DISL,ioos:station:DISL:DISL:1,2009-01-01T20:00:00Z,30.2513,-88.0778,15.6,1111122 
DISL,ioos:station:DISL:DISL:1,2009-01-01T20:30:00Z,30.2513,-88.0778,15.33,1111122 
DISL,ioos:station:DISL:DISL:1,2009-01-01T21:00:00Z,30.2513,-88.0778,15.4,1111122 
DISL,ioos:station:DISL:DISL:1,2009-01-01T21:30:00Z,30.2513,-88.0778,15.31,1111122 
DISL,ioos:station:DISL:DISL:1,2009-01-01T22:00:00Z,30.2513,-88.0778,15.49,1111122 
DISL,ioos:station:DISL:DISL:1,2009-01-01T22:30:00Z,30.2513,-88.0778,15.46,1111122 
DISL,ioos:station:DISL:DISL:1,2009-01-01T23:00:00Z,30.2513,-88.0778,15.29,1111122 
DISL,ioos:station:DISL:DISL:1,2009-01-01T23:30:00Z,30.2513,-88.0778,14.99,1111122 
DISL,ioos:station:DISL:DISL:1,2009-01-02T00:00:00Z,30.2513,-88.0778,14.63,1111122 
DISL,ioos:station:DISL:DISL:1,2009-01-02T00:30:00Z,30.2513,-88.0778,14.97,1111122 
DISL,ioos:station:DISL:DISL:1,2009-01-02T01:00:00Z,30.2513,-88.0778,14.66,1111122 
DISL,ioos:station:DISL:DISL:1,2009-01-02T01:30:00Z,30.2513,-88.0778,14.94,1111122 
DISL,ioos:station:DISL:DISL:1,2009-01-02T02:00:00Z,30.2513,-88.0778,16.52,1111122 
DISL,ioos:station:DISL:DISL:1,2009-01-02T02:30:00Z,30.2513,-88.0778,17.15,1111122 
DISL,ioos:station:DISL:DISL:1,2009-01-02T03:00:00Z,30.2513,-88.0778,17.31,1111122 
DISL,ioos:station:DISL:DISL:1,2009-01-02T03:30:00Z,30.2513,-88.0778,17.12,1111122 
DISL,ioos:station:DISL:DISL:1,2009-01-02T04:00:00Z,30.2513,-88.0778,17.09,1111122 
DISL,ioos:station:DISL:DISL:1,2009-01-02T04:30:00Z,30.2513,-88.0778,17.19,1111122 
DISL,ioos:station:DISL:DISL:1,2009-01-02T05:00:00Z,30.2513,-88.0778,17.48,1111122 
DISL,ioos:station:DISL:DISL:1,2009-01-02T05:30:00Z,30.2513,-88.0778,17.3,1111122 
DISL,ioos:station:DISL:DISL:1,2009-01-02T06:00:00Z,30.2513,-88.0778,17.19,1111122 
DISL,ioos:station:DISL:DISL:1,2009-01-02T06:30:00Z,30.2513,-88.0778,17.14,1111122 
DISL,ioos:station:DISL:DISL:1,2009-01-02T07:00:00Z,30.2513,-88.0778,16.67,1111122 
DISL,ioos:station:DISL:DISL:1,2009-01-02T07:30:00Z,30.2513,-88.0778,17.09,1111122 
DISL,ioos:station:DISL:DISL:1,2009-01-02T08:00:00Z,30.2513,-88.0778,16.53,1111122 
DISL,ioos:station:DISL:DISL:1,2009-01-02T08:30:00Z,30.2513,-88.0778,16.5,1111122 
DISL,ioos:station:DISL:DISL:1,2009-01-02T09:00:00Z,30.2513,-88.0778,16.51,1111122 
DISL,ioos:station:DISL:DISL:1,2009-01-02T09:30:00Z,30.2513,-88.0778,15.2,1111122 
DISL,ioos:station:DISL:DISL:1,2009-01-02T10:00:00Z,30.2513,-88.0778,15.4,1111122 
DISL,ioos:station:DISL:DISL:1,2009-01-02T10:30:00Z,30.2513,-88.0778,15.42,1111122 
DISL,ioos:station:DISL:DISL:1,2009-01-02T11:00:00Z,30.2513,-88.0778,15.01,1111122 
DISL,ioos:station:DISL:DISL:1,2009-01-02T11:30:00Z,30.2513,-88.0778,14.92,1111122 
DISL,ioos:station:DISL:DISL:1,2009-01-02T12:00:00Z,30.2513,-88.0778,14.79,1111122 
DISL,ioos:station:DISL:DISL:1,2009-01-02T12:30:00Z,30.2513,-88.0778,15.11,1111122 
DISL,ioos:station:DISL:DISL:1,2009-01-02T13:00:00Z,30.2513,-88.0778,15.65,1111122 
DISL,ioos:station:DISL:DISL:1,2009-01-02T13:30:00Z,30.2513,-88.0778,15.89,1111122 
DISL,ioos:station:DISL:DISL:1,2009-01-02T14:00:00Z,30.2513,-88.0778,16.04,1111122 
DISL,ioos:station:DISL:DISL:1,2009-01-02T14:30:00Z,30.2513,-88.0778,15.87,1111122 
DISL,ioos:station:DISL:DISL:1,2009-01-02T15:00:00Z,30.2513,-88.0778,18.33,1111122 
DISL,ioos:station:DISL:DISL:1,2009-01-02T15:30:00Z,30.2513,-88.0778,18.38,1111122 
DISL,ioos:station:DISL:DISL:1,2009-01-02T16:00:00Z,30.2513,-88.0778,19.08,1111122 
DISL,ioos:station:DISL:DISL:1,2009-01-02T16:30:00Z,30.2513,-88.0778,19.06,1111122 
DISL,ioos:station:DISL:DISL:1,2009-01-02T17:00:00Z,30.2513,-88.0778,18.77,1111122 
DISL,ioos:station:DISL:DISL:1,2009-01-02T17:30:00Z,30.2513,-88.0778,19.36,1111122 
DISL,ioos:station:DISL:DISL:1,2009-01-02T18:00:00Z,30.2513,-88.0778,19.96,1111122 
DISL,ioos:station:DISL:DISL:1,2009-01-02T18:30:00Z,30.2513,-88.0778,20.21,1111122 
DISL,ioos:station:DISL:DISL:1,2009-01-02T19:00:00Z,30.2513,-88.0778,19.98,1111122 
DISL,ioos:station:DISL:DISL:1,2009-01-02T19:30:00Z,30.2513,-88.0778,21.38,1111122 
DISL,ioos:station:DISL:DISL:1,2009-01-02T20:00:00Z,30.2513,-88.0778,19.96,1111122 
DISL,ioos:station:DISL:DISL:1,2009-01-02T20:30:00Z,30.2513,-88.0778,20.34,1111122 
DISL,ioos:station:DISL:DISL:1,2009-01-02T21:00:00Z,30.2513,-88.0778,19.47,1111122 
DISL,ioos:station:DISL:DISL:1,2009-01-02T21:30:00Z,30.2513,-88.0778,18.98,1111122 
DISL,ioos:station:DISL:DISL:1,2009-01-02T22:00:00Z,30.2513,-88.0778,18.84,1111122 
DISL,ioos:station:DISL:DISL:1,2009-01-02T22:30:00Z,30.2513,-88.0778,18.81,1111122 
DISL,ioos:station:DISL:DISL:1,2009-01-02T23:00:00Z,30.2513,-88.0778,18.36,1111122 
DISL,ioos:station:DISL:DISL:1,2009-01-02T23:30:00Z,30.2513,-88.0778,17.95,1111122 
DISL,ioos:station:DISL:DISL:1,2009-01-03T00:00:00Z,30.2513,-88.0778,17.5,1111122 
DISL,ioos:station:DISL:DISL:1,2009-01-03T00:30:00Z,30.2513,-88.0778,17.66,1111122 
DISL,ioos:station:DISL:DISL:1,2009-01-03T01:00:00Z,30.2513,-88.0778,17.61,1111122 
DISL,ioos:station:DISL:DISL:1,2009-01-03T01:30:00Z,30.2513,-88.0778,17.6,1111122 
DISL,ioos:station:DISL:DISL:1,2009-01-03T02:00:00Z,30.2513,-88.0778,17.44,1111122 
DISL,ioos:station:DISL:DISL:1,2009-01-03T02:30:00Z,30.2513,-88.0778,17.42,1111122 
DISL,ioos:station:DISL:DISL:1,2009-01-03T03:00:00Z,30.2513,-88.0778,16.83,1111122 
DISL,ioos:station:DISL:DISL:1,2009-01-03T03:30:00Z,30.2513,-88.0778,17.7,1111122 
DISL,ioos:station:DISL:DISL:1,2009-01-03T04:00:00Z,30.2513,-88.0778,17.73,1111122 
DISL,ioos:station:DISL:DISL:1,2009-01-03T04:30:00Z,30.2513,-88.0778,17.4,1111122 
DISL,ioos:station:DISL:DISL:1,2009-01-03T05:00:00Z,30.2513,-88.0778,16.79,1111122 
DISL,ioos:station:DISL:DISL:1,2009-01-03T05:30:00Z,30.2513,-88.0778,16.92,1111122 
DISL,ioos:station:DISL:DISL:1,2009-01-03T06:00:00Z,30.2513,-88.0778,16.85,1111122 
DISL,ioos:station:DISL:DISL:1,2009-01-03T06:30:00Z,30.2513,-88.0778,16.99,1111122 
DISL,ioos:station:DISL:DISL:1,2009-01-03T07:00:00Z,30.2513,-88.0778,16.75,1111122 
DISL,ioos:station:DISL:DISL:1,2009-01-03T07:30:00Z,30.2513,-88.0778,16.92,1111122 
DISL,ioos:station:DISL:DISL:1,2009-01-03T08:00:00Z,30.2513,-88.0778,17.2,1111122 
DISL,ioos:station:DISL:DISL:1,2009-01-03T08:30:00Z,30.2513,-88.0778,16.96,1111122 
DISL,ioos:station:DISL:DISL:1,2009-01-03T09:00:00Z,30.2513,-88.0778,16.54,1111122 
DISL,ioos:station:DISL:DISL:1,2009-01-03T09:30:00Z,30.2513,-88.0778,15.81,1111122 
DISL,ioos:station:DISL:DISL:1,2009-01-03T10:00:00Z,30.2513,-88.0778,16.58,1111122 
DISL,ioos:station:DISL:DISL:1,2009-01-03T10:30:00Z,30.2513,-88.0778,16.57,1111122 
DISL,ioos:station:DISL:DISL:1,2009-01-03T11:00:00Z,30.2513,-88.0778,16.22,1111122 
DISL,ioos:station:DISL:DISL:1,2009-01-03T11:30:00Z,30.2513,-88.0778,16.61,1111122 
DISL,ioos:station:DISL:DISL:1,2009-01-03T12:00:00Z,30.2513,-88.0778,16.49,1111122 
DISL,ioos:station:DISL:DISL:1,2009-01-03T12:30:00Z,30.2513,-88.0778,16.45,1111122 
DISL,ioos:station:DISL:DISL:1,2009-01-03T13:00:00Z,30.2513,-88.0778,16.48,1111122 
DISL,ioos:station:DISL:DISL:1,2009-01-03T13:30:00Z,30.2513,-88.0778,17.04,1111122 
DISL,ioos:station:DISL:DISL:1,2009-01-03T14:00:00Z,30.2513,-88.0778,17.38,1111122 
DISL,ioos:station:DISL:DISL:1,2009-01-03T14:30:00Z,30.2513,-88.0778,17.75,1111122 
DISL,ioos:station:DISL:DISL:1,2009-01-03T15:00:00Z,30.2513,-88.0778,18.54,1111122 
DISL,ioos:station:DISL:DISL:1,2009-01-03T15:30:00Z,30.2513,-88.0778,18.0,1111122 
DISL,ioos:station:DISL:DISL:1,2009-01-03T16:00:00Z,30.2513,-88.0778,18.25,1111122 
DISL,ioos:station:DISL:DISL:1,2009-01-03T16:30:00Z,30.2513,-88.0778,18.98,1111122 
DISL,ioos:station:DISL:DISL:1,2009-01-03T17:00:00Z,30.2513,-88.0778,19.67,1111122 
DISL,ioos:station:DISL:DISL:1,2009-01-03T17:30:00Z,30.2513,-88.0778,19.3,1111122 
DISL,ioos:station:DISL:DISL:1,2009-01-03T18:00:00Z,30.2513,-88.0778,19.09,1111122 
DISL,ioos:station:DISL:DISL:1,2009-01-03T18:30:00Z,30.2513,-88.0778,18.93,1111122 
DISL,ioos:station:DISL:DISL:1,2009-01-03T19:00:00Z,30.2513,-88.0778,18.99,1111122 
DISL,ioos:station:DISL:DISL:1,2009-01-03T19:30:00Z,30.2513,-88.0778,19.29,1111122 
DISL,ioos:station:DISL:DISL:1,2009-01-03T20:00:00Z,30.2513,-88.0778,19.24,1111122 
DISL,ioos:station:DISL:DISL:1,2009-01-03T20:30:00Z,30.2513,-88.0778,19.8,1111122 
DISL,ioos:station:DISL:DISL:1,2009-01-03T21:00:00Z,30.2513,-88.0778,19.8,1111122 
DISL,ioos:station:DISL:DISL:1,2009-01-03T21:30:00Z,30.2513,-88.0778,19.18,1111122 
DISL,ioos:station:DISL:DISL:1,2009-01-03T22:00:00Z,30.2513,-88.0778,19.17,1111122 
DISL,ioos:station:DISL:DISL:1,2009-01-03T22:30:00Z,30.2513,-88.0778,18.98,1111122 
DISL,ioos:station:DISL:DISL:1,2009-01-03T23:00:00Z,30.2513,-88.0778,18.76,1111122 
DISL,ioos:station:DISL:DISL:1,2009-01-03T23:30:00Z,30.2513,-88.0778,18.1,1111122 
DISL,ioos:station:DISL:DISL:1,2009-01-04T00:00:00Z,30.2513,-88.0778,16.55,1111122 
DISL,ioos:station:DISL:DISL:1,2009-01-04T00:30:00Z,30.2513,-88.0778,16.6,1111122 
DISL,ioos:station:DISL:DISL:1,2009-01-04T01:00:00Z,30.2513,-88.0778,16.45,1111122 
DISL,ioos:station:DISL:DISL:1,2009-01-04T01:30:00Z,30.2513,-88.0778,16.59,1111122 
DISL,ioos:station:DISL:DISL:1,2009-01-04T02:00:00Z,30.2513,-88.0778,15.99,1111122 
DISL,ioos:station:DISL:DISL:1,2009-01-04T02:30:00Z,30.2513,-88.0778,15.96,1111122 
DISL,ioos:station:DISL:DISL:1,2009-01-04T03:00:00Z,30.2513,-88.0778,16.43,1111122 
DISL,ioos:station:DISL:DISL:1,2009-01-04T03:30:00Z,30.2513,-88.0778,16.35,1111122 
DISL,ioos:station:DISL:DISL:1,2009-01-04T04:00:00Z,30.2513,-88.0778,16.3,1111122 
DISL,ioos:station:DISL:DISL:1,2009-01-04T04:30:00Z,30.2513,-88.0778,16.29,1111122 
DISL,ioos:station:DISL:DISL:1,2009-01-04T05:00:00Z,30.2513,-88.0778,16.9,1111122 
DISL,ioos:station:DISL:DISL:1,2009-01-04T05:30:00Z,30.2513,-88.0778,17.0,1111122 
DISL,ioos:station:DISL:DISL:1,2009-01-04T06:00:00Z,30.2513,-88.0778,16.24,1111122 
DISL,ioos:station:DISL:DISL:1,2009-01-04T06:30:00Z,30.2513,-88.0778,16.45,1111122 
DISL,ioos:station:DISL:DISL:1,2009-01-04T07:00:00Z,30.2513,-88.0778,16.31,1111122 
DISL,ioos:station:DISL:DISL:1,2009-01-04T07:30:00Z,30.2513,-88.0778,16.41,1111122 
DISL,ioos:station:DISL:DISL:1,2009-01-04T08:00:00Z,30.2513,-88.0778,16.5,1111122 
DISL,ioos:station:DISL:DISL:1,2009-01-04T08:30:00Z,30.2513,-88.0778,17.17,1111122 
DISL,ioos:station:DISL:DISL:1,2009-01-04T09:00:00Z,30.2513,-88.0778,17.23,1111122 
DISL,ioos:station:DISL:DISL:1,2009-01-04T09:30:00Z,30.2513,-88.0778,16.8,1111122 
DISL,ioos:station:DISL:DISL:1,2009-01-04T10:00:00Z,30.2513,-88.0778,16.9,1111122 
DISL,ioos:station:DISL:DISL:1,2009-01-04T10:30:00Z,30.2513,-88.0778,16.87,1111122 
DISL,ioos:station:DISL:DISL:1,2009-01-04T11:00:00Z,30.2513,-88.0778,16.86,1111122 
DISL,ioos:station:DISL:DISL:1,2009-01-04T11:30:00Z,30.2513,-88.0778,16.88,1111122 
DISL,ioos:station:DISL:DISL:1,2009-01-04T12:00:00Z,30.2513,-88.0778,16.98,1111122 
DISL,ioos:station:DISL:DISL:1,2009-01-04T12:30:00Z,30.2513,-88.0778,16.4,1111122 
DISL,ioos:station:DISL:DISL:1,2009-01-04T13:00:00Z,30.2513,-88.0778,17.23,1111122 
DISL,ioos:station:DISL:DISL:1,2009-01-04T13:30:00Z,30.2513,-88.0778,17.68,1111122 
DISL,ioos:station:DISL:DISL:1,2009-01-04T14:00:00Z,30.2513,-88.0778,18.0,1111122 
DISL,ioos:station:DISL:DISL:1,2009-01-04T14:30:00Z,30.2513,-88.0778,18.14,1111122 
DISL,ioos:station:DISL:DISL:1,2009-01-04T15:00:00Z,30.2513,-88.0778,18.19,1111122 
DISL,ioos:station:DISL:DISL:1,2009-01-04T15:30:00Z,30.2513,-88.0778,18.07,1111122 
DISL,ioos:station:DISL:DISL:1,2009-01-04T16:00:00Z,30.2513,-88.0778,18.93,1111122 
DISL,ioos:station:DISL:DISL:1,2009-01-04T16:30:00Z,30.2513,-88.0778,18.76,1111122 
DISL,ioos:station:DISL:DISL:1,2009-01-04T17:00:00Z,30.2513,-88.0778,18.67,1111122 
DISL,ioos:station:DISL:DISL:1,2009-01-04T17:30:00Z,30.2513,-88.0778,18.57,1111122 
DISL,ioos:station:DISL:DISL:1,2009-01-04T18:00:00Z,30.2513,-88.0778,18.82,1111122 
DISL,ioos:station:DISL:DISL:1,2009-01-04T18:30:00Z,30.2513,-88.0778,18.88,1111122 
DISL,ioos:station:DISL:DISL:1,2009-01-04T19:00:00Z,30.2513,-88.0778,19.26,1111122 
DISL,ioos:station:DISL:DISL:1,2009-01-04T19:30:00Z,30.2513,-88.0778,18.77,1111122 
DISL,ioos:station:DISL:DISL:1,2009-01-04T20:00:00Z,30.2513,-88.0778,18.26,1111122 
DISL,ioos:station:DISL:DISL:1,2009-01-04T20:30:00Z,30.2513,-88.0778,19.2,1111122 
DISL,ioos:station:DISL:DISL:1,2009-01-04T21:00:00Z,30.2513,-88.0778,18.93,1111122 
DISL,ioos:station:DISL:DISL:1,2009-01-04T21:30:00Z,30.2513,-88.0778,18.19,1111122 
DISL,ioos:station:DISL:DISL:1,2009-01-04T22:00:00Z,30.2513,-88.0778,18.08,1111122 
DISL,ioos:station:DISL:DISL:1,2009-01-04T22:30:00Z,30.2513,-88.0778,18.2,1111122 
DISL,ioos:station:DISL:DISL:1,2009-01-04T23:00:00Z,30.2513,-88.0778,18.33,1111122 
DISL,ioos:station:DISL:DISL:1,2009-01-04T23:30:00Z,30.2513,-88.0778,18.25,1111122 
DISL,ioos:station:DISL:DISL:1,2009-01-05T00:00:00Z,30.2513,-88.0778,18.03,1111122 
DISL,ioos:station:DISL:DISL:1,2009-01-05T00:30:00Z,30.2513,-88.0778,17.93,1111122 
DISL,ioos:station:DISL:DISL:1,2009-01-05T01:00:00Z,30.2513,-88.0778,17.28,1111122 
DISL,ioos:station:DISL:DISL:1,2009-01-05T01:30:00Z,30.2513,-88.0778,17.46,1111122 
DISL,ioos:station:DISL:DISL:1,2009-01-05T02:00:00Z,30.2513,-88.0778,17.14,1111122 
DISL,ioos:station:DISL:DISL:1,2009-01-05T02:30:00Z,30.2513,-88.0778,17.26,1111122 
DISL,ioos:station:DISL:DISL:1,2009-01-05T03:00:00Z,30.2513,-88.0778,17.6,1111122 
DISL,ioos:station:DISL:DISL:1,2009-01-05T03:30:00Z,30.2513,-88.0778,17.04,1111122 
DISL,ioos:station:DISL:DISL:1,2009-01-05T04:00:00Z,30.2513,-88.0778,17.1,1111122 
DISL,ioos:station:DISL:DISL:1,2009-01-05T04:30:00Z,30.2513,-88.0778,17.53,1111122 
DISL,ioos:station:DISL:DISL:1,2009-01-05T05:00:00Z,30.2513,-88.0778,17.36,1111122 
DISL,ioos:station:DISL:DISL:1,2009-01-05T05:30:00Z,30.2513,-88.0778,17.58,1111122 
DISL,ioos:station:DISL:DISL:1,2009-01-05T06:00:00Z,30.2513,-88.0778,17.95,1111122 
DISL,ioos:station:DISL:DISL:1,2009-01-05T06:30:00Z,30.2513,-88.0778,17.82,1111122 
DISL,ioos:station:DISL:DISL:1,2009-01-05T07:00:00Z,30.2513,-88.0778,17.94,1111122 
DISL,ioos:station:DISL:DISL:1,2009-01-05T07:30:00Z,30.2513,-88.0778,17.72,1111122 
DISL,ioos:station:DISL:DISL:1,2009-01-05T08:00:00Z,30.2513,-88.0778,17.68,1111122 
DISL,ioos:station:DISL:DISL:1,2009-01-05T08:30:00Z,30.2513,-88.0778,17.54,1111122 
DISL,ioos:station:DISL:DISL:1,2009-01-05T09:00:00Z,30.2513,-88.0778,17.5,1111122 
DISL,ioos:station:DISL:DISL:1,2009-01-05T09:30:00Z,30.2513,-88.0778,17.82,1111122 
DISL,ioos:station:DISL:DISL:1,2009-01-05T10:00:00Z,30.2513,-88.0778,17.61,1111122 
DISL,ioos:station:DISL:DISL:1,2009-01-05T10:30:00Z,30.2513,-88.0778,17.94,1111122 
DISL,ioos:station:DISL:DISL:1,2009-01-05T11:00:00Z,30.2513,-88.0778,17.87,1111122 
DISL,ioos:station:DISL:DISL:1,2009-01-05T11:30:00Z,30.2513,-88.0778,18.15,1111122 
DISL,ioos:station:DISL:DISL:1,2009-01-05T12:00:00Z,30.2513,-88.0778,17.87,1111122 
DISL,ioos:station:DISL:DISL:1,2009-01-05T12:30:00Z,30.2513,-88.0778,17.29,1111122 
DISL,ioos:station:DISL:DISL:1,2009-01-05T13:00:00Z,30.2513,-88.0778,17.74,1111122 
DISL,ioos:station:DISL:DISL:1,2009-01-05T13:30:00Z,30.2513,-88.0778,17.97,1111122 
DISL,ioos:station:DISL:DISL:1,2009-01-05T14:00:00Z,30.2513,-88.0778,18.1,1111122 
DISL,ioos:station:DISL:DISL:1,2009-01-05T14:30:00Z,30.2513,-88.0778,18.42,1111122 
DISL,ioos:station:DISL:DISL:1,2009-01-05T15:00:00Z,30.2513,-88.0778,18.96,1111122 
DISL,ioos:station:DISL:DISL:1,2009-01-05T15:30:00Z,30.2513,-88.0778,17.0,1111122 
DISL,ioos:station:DISL:DISL:1,2009-01-05T16:00:00Z,30.2513,-88.0778,18.34,1111122 
DISL,ioos:station:DISL:DISL:1,2009-01-05T16:30:00Z,30.2513,-88.0778,19.44,1111122 
DISL,ioos:station:DISL:DISL:1,2009-01-05T17:00:00Z,30.2513,-88.0778,19.91,1111122 
DISL,ioos:station:DISL:DISL:1,2009-01-05T17:30:00Z,30.2513,-88.0778,20.31,1111122 
DISL,ioos:station:DISL:DISL:1,2009-01-05T18:00:00Z,30.2513,-88.0778,20.65,1111122 
DISL,ioos:station:DISL:DISL:1,2009-01-05T18:30:00Z,30.2513,-88.0778,20.68,1111122 
DISL,ioos:station:DISL:DISL:1,2009-01-05T19:00:00Z,30.2513,-88.0778,20.89,1111122 
DISL,ioos:station:DISL:DISL:1,2009-01-05T19:30:00Z,30.2513,-88.0778,20.63,1111122 
DISL,ioos:station:DISL:DISL:1,2009-01-05T20:00:00Z,30.2513,-88.0778,21.07,1111122 
DISL,ioos:station:DISL:DISL:1,2009-01-05T20:30:00Z,30.2513,-88.0778,20.62,1111122 
DISL,ioos:station:DISL:DISL:1,2009-01-05T21:00:00Z,30.2513,-88.0778,20.46,1111122 
DISL,ioos:station:DISL:DISL:1,2009-01-05T21:30:00Z,30.2513,-88.0778,20.5,1111122 
DISL,ioos:station:DISL:DISL:1,2009-01-05T22:00:00Z,30.2513,-88.0778,19.92,1111122 
DISL,ioos:station:DISL:DISL:1,2009-01-05T22:30:00Z,30.2513,-88.0778,19.87,1111122 
DISL,ioos:station:DISL:DISL:1,2009-01-05T23:00:00Z,30.2513,-88.0778,19.46,1111122 
DISL,ioos:station:DISL:DISL:1,2009-01-05T23:30:00Z,30.2513,-88.0778,19.49,1111122 
DISL,ioos:station:DISL:DISL:1,2009-01-06T00:00:00Z,30.2513,-88.0778,19.34,1111122 
DISL,ioos:station:DISL:DISL:1,2009-01-06T00:30:00Z,30.2513,-88.0778,19.2,1111122 
DISL,ioos:station:DISL:DISL:1,2009-01-06T01:00:00Z,30.2513,-88.0778,19.28,1111122 
DISL,ioos:station:DISL:DISL:1,2009-01-06T01:30:00Z,30.2513,-88.0778,19.11,1111122 
DISL,ioos:station:DISL:DISL:1,2009-01-06T02:00:00Z,30.2513,-88.0778,19.26,1111122 
DISL,ioos:station:DISL:DISL:1,2009-01-06T02:30:00Z,30.2513,-88.0778,19.27,1111122 
DISL,ioos:station:DISL:DISL:1,2009-01-06T03:00:00Z,30.2513,-88.0778,19.14,1111122 
DISL,ioos:station:DISL:DISL:1,2009-01-06T03:30:00Z,30.2513,-88.0778,19.24,1111122 
DISL,ioos:station:DISL:DISL:1,2009-01-06T04:00:00Z,30.2513,-88.0778,19.26,1111122 
DISL,ioos:station:DISL:DISL:1,2009-01-06T04:30:00Z,30.2513,-88.0778,19.27,1111122 
DISL,ioos:station:DISL:DISL:1,2009-01-06T05:00:00Z,30.2513,-88.0778,19.22,1111122 
DISL,ioos:station:DISL:DISL:1,2009-01-06T05:30:00Z,30.2513,-88.0778,19.3,1111122 
DISL,ioos:station:DISL:DISL:1,2009-01-06T06:00:00Z,30.2513,-88.0778,19.05,1111122 
DISL,ioos:station:DISL:DISL:1,2009-01-06T06:30:00Z,30.2513,-88.0778,18.97,1111122 
DISL,ioos:station:DISL:DISL:1,2009-01-06T07:00:00Z,30.2513,-88.0778,18.88,1111122 
DISL,ioos:station:DISL:DISL:1,2009-01-06T07:30:00Z,30.2513,-88.0778,18.84,1111122 
DISL,ioos:station:DISL:DISL:1,2009-01-06T08:00:00Z,30.2513,-88.0778,18.94,1111122 
DISL,ioos:station:DISL:DISL:1,2009-01-06T08:30:00Z,30.2513,-88.0778,18.58,1111122 
DISL,ioos:station:DISL:DISL:1,2009-01-06T09:00:00Z,30.2513,-88.0778,18.71,1111122 
DISL,ioos:station:DISL:DISL:1,2009-01-06T09:30:00Z,30.2513,-88.0778,18.55,1111122 
DISL,ioos:station:DISL:DISL:1,2009-01-06T10:00:00Z,30.2513,-88.0778,18.31,1111122 
DISL,ioos:station:DISL:DISL:1,2009-01-06T10:30:00Z,30.2513,-88.0778,18.7,1111122 
DISL,ioos:station:DISL:DISL:1,2009-01-06T11:00:00Z,30.2513,-88.0778,18.84,1111122 
DISL,ioos:station:DISL:DISL:1,2009-01-06T11:30:00Z,30.2513,-88.0778,18.89,1111122 
DISL,ioos:station:DISL:DISL:1,2009-01-06T12:00:00Z,30.2513,-88.0778,19.12,1111122 
DISL,ioos:station:DISL:DISL:1,2009-01-06T12:30:00Z,30.2513,-88.0778,19.22,1111122 
DISL,ioos:station:DISL:DISL:1,2009-01-06T13:00:00Z,30.2513,-88.0778,19.18,1111122 
DISL,ioos:station:DISL:DISL:1,2009-01-06T13:30:00Z,30.2513,-88.0778,19.15,1111122 
DISL,ioos:station:DISL:DISL:1,2009-01-06T14:00:00Z,30.2513,-88.0778,19.89,1111122 
DISL,ioos:station:DISL:DISL:1,2009-01-06T14:30:00Z,30.2513,-88.0778,20.22,1111122 
DISL,ioos:station:DISL:DISL:1,2009-01-06T15:00:00Z,30.2513,-88.0778,20.23,1111122 
DISL,ioos:station:DISL:DISL:1,2009-01-06T15:30:00Z,30.2513,-88.0778,20.33,1111122 
DISL,ioos:station:DISL:DISL:1,2009-01-06T16:00:00Z,30.2513,-88.0778,20.76,1111122 
DISL,ioos:station:DISL:DISL:1,2009-01-06T16:30:00Z,30.2513,-88.0778,21.01,1111122 
DISL,ioos:station:DISL:DISL:1,2009-01-06T17:00:00Z,30.2513,-88.0778,21.03,1111122 
DISL,ioos:station:DISL:DISL:1,2009-01-06T17:30:00Z,30.2513,-88.0778,21.15,1111122 
DISL,ioos:station:DISL:DISL:1,2009-01-06T18:00:00Z,30.2513,-88.0778,21.05,1111122 
DISL,ioos:station:DISL:DISL:1,2009-01-06T18:30:00Z,30.2513,-88.0778,21.46,1111122 
DISL,ioos:station:DISL:DISL:1,2009-01-06T19:00:00Z,30.2513,-88.0778,21.32,1111122 
DISL,ioos:station:DISL:DISL:1,2009-01-06T19:30:00Z,30.2513,-88.0778,20.96,1111122 
DISL,ioos:station:DISL:DISL:1,2009-01-06T20:00:00Z,30.2513,-88.0778,20.7,1111122 
DISL,ioos:station:DISL:DISL:1,2009-01-06T20:30:00Z,30.2513,-88.0778,20.65,1111122 
DISL,ioos:station:DISL:DISL:1,2009-01-06T21:00:00Z,30.2513,-88.0778,20.71,1111122 
DISL,ioos:station:DISL:DISL:1,2009-01-06T21:30:00Z,30.2513,-88.0778,20.35,1111122 
DISL,ioos:station:DISL:DISL:1,2009-01-06T22:00:00Z,30.2513,-88.0778,20.35,1111122 
DISL,ioos:station:DISL:DISL:1,2009-01-06T22:30:00Z,30.2513,-88.0778,20.01,1111122 
DISL,ioos:station:DISL:DISL:1,2009-01-06T23:00:00Z,30.2513,-88.0778,20.11,1111122 
DISL,ioos:station:DISL:DISL:1,2009-01-06T23:30:00Z,30.2513,-88.0778,20.31,1111122 
DISL,ioos:station:DISL:DISL:1,2009-01-07T00:00:00Z,30.2513,-88.0778,19.93,1111122 
DISL,ioos:station:DISL:DISL:1,2009-01-07T00:30:00Z,30.2513,-88.0778,20.16,1111122 
DISL,ioos:station:DISL:DISL:1,2009-01-07T01:00:00Z,30.2513,-88.0778,20.14,1111122 
DISL,ioos:station:DISL:DISL:1,2009-01-07T01:30:00Z,30.2513,-88.0778,20.16,1111122 
DISL,ioos:station:DISL:DISL:1,2009-01-07T02:00:00Z,30.2513,-88.0778,20.64,1111122 
DISL,ioos:station:DISL:DISL:1,2009-01-07T02:30:00Z,30.2513,-88.0778,20.64,1111122 
DISL,ioos:station:DISL:DISL:1,2009-01-07T03:00:00Z,30.2513,-88.0778,20.63,1111122 
DISL,ioos:station:DISL:DISL:1,2009-01-07T03:30:00Z,30.2513,-88.0778,20.71,1111122 
DISL,ioos:station:DISL:DISL:1,2009-01-07T04:00:00Z,30.2513,-88.0778,18.62,1111122 
DISL,ioos:station:DISL:DISL:1,2009-01-07T04:30:00Z,30.2513,-88.0778,16.79,1111122 
DISL,ioos:station:DISL:DISL:1,2009-01-07T05:00:00Z,30.2513,-88.0778,16.53,1111122 
DISL,ioos:station:DISL:DISL:1,2009-01-07T05:30:00Z,30.2513,-88.0778,16.23,1111122 
DISL,ioos:station:DISL:DISL:1,2009-01-07T06:00:00Z,30.2513,-88.0778,16.29,1111122 
DISL,ioos:station:DISL:DISL:1,2009-01-07T06:30:00Z,30.2513,-88.0778,16.19,1111122 